(245088) = 2004 PJ7

Discovered at Palomar on 2004-08-06 by NEAT.

Orbit

Orbit type: Main Belt

Note: WebGL enabled browser required.

epoch2024-03-31.0
epoch JD2460400.5
perihelion date2021-11-05.72238
perihelion JD2459524.22238
argument of perihelion (°)344.66888
ascending node (°)313.75449
inclination (°)5.47255
eccentricity0.1752397
perihelion distance (AU)1.8949734
Tisserand w.r.t. Jupiter3.6
ΔV w.r.t. Earth (km/sec)8.7
semimajor axis (AU)2.2976048
mean anomaly (°)247.98921
mean daily motion (°/day)0.28300300
aphelion distance (AU)2.700
period (years)3.48
P-vector [x]0.47685345
P-vector [y]-0.79608903
P-vector [z]-0.37262990
Q-vector [x]0.87627937
Q-vector [y]0.39733114
Q-vector [z]0.27251134
absolute magnitude16.88
phase slope0.15
uncertainty0
referenceE2024-GJ9
observations used482
oppositions17
arc length (days)8745
first opposition used2000
last opposition used2024
residual rms (arc-secs)0.73
perturbers coarse indicatorM-v
perturbers precise indicator003Ek
first observation date used2000-05-03.0
last observation date used2024-04-12.0
computer nameMPCLINUX
JD of orbit computation2456847.756763
perihelion JD uncertainty (days)5.2017E-05
argument of perihelion uncertainty (°)4.4972E-05
ascending node uncertainty (°)4.2917E-05
inclination uncertainty (°)5.2706E-06
eccentricity uncertainty 4.8151E-08
perihelion distance uncertainty (AU)1.1388E-07
Minimum Orbit Intersection Distances (in AU)
for orbit epoch: 2460400.5, reference: E2024-GJ9
Mercury1.44797
Venus1.16702
Earth0.87973
Mars0.47539
Jupiter2.50331
Saturn6.37744
Uranus15.8365
Neptune27.3675

Observations

483 total observations over interval: 2000 05 03.20876 – 2024 03 05.280893
These data are available for download (format description).

Date (UT) J2000 RA J2000 Dec Magn Location Ref
2000 05 03.20876 13 41 42.63 -21 16 07.8 19.1   704 – Lincoln Laboratory ETS, New Mexico MPS 112729
2000 05 03.22187 13 41 41.89 -21 16 03.5 18.8   704 – Lincoln Laboratory ETS, New Mexico MPS 112729
2000 05 03.23505 13 41 41.03 -21 15 58.7 19.8   704 – Lincoln Laboratory ETS, New Mexico MPS 112729
2000 05 03.24808 13 41 40.23 -21 15 54.0 19.2   704 – Lincoln Laboratory ETS, New Mexico MPS 112729
2001 10 15.32494 03 49 23.29 +28 50 56.1 19.7   704 – Lincoln Laboratory ETS, New Mexico MPS 112729
2001 10 15.34072 03 49 22.66 +28 50 57.9 20.2   704 – Lincoln Laboratory ETS, New Mexico MPS 112729
2001 10 15.37225 03 49 21.34 +28 50 58.8 20.3   704 – Lincoln Laboratory ETS, New Mexico MPS 112729
2001 11 12.28986 03 21 44.59 +27 56 21.9 19.8   704 – Lincoln Laboratory ETS, New Mexico MPS 112729
2001 11 12.31934 03 21 42.45 +27 56 13.8 19.9   704 – Lincoln Laboratory ETS, New Mexico MPS 112729
2001 11 12.33406 03 21 41.40 +27 56 10.9 19.8   704 – Lincoln Laboratory ETS, New Mexico MPS 112729
2001 11 12.34878 03 21 40.32 +27 56 06.8 20.1   704 – Lincoln Laboratory ETS, New Mexico MPS 112729
2004 08 06.37051 22 19 50.56 -08 24 07.9 18.5   644 – Palomar Mountain/NEAT MPS 111170
2004 08 06.39873 22 19 49.05 -08 24 07.0 18.6   644 – Palomar Mountain/NEAT MPS 111170
2004 08 06.43439 22 19 47.19 -08 24 05.6 18.3   644 – Palomar Mountain/NEAT MPS 111170
2004 08 08.32450 22 18 10.57 -08 23 23.2 18.3 R 699 – Lowell Observatory-LONEOS MPS 111170
2004 08 08.33751 22 18 09.83 -08 23 21.9   699 – Lowell Observatory-LONEOS MPS 111170
2004 08 08.35049 22 18 09.14 -08 23 22.3   699 – Lowell Observatory-LONEOS MPS 111170
2004 08 08.36345 22 18 08.31 -08 23 22.2   699 – Lowell Observatory-LONEOS MPS 111170
2004 08 09.25281 22 17 21.59 -08 23 09.4 18.9   704 – Lincoln Laboratory ETS, New Mexico MPS 111170
2004 08 09.26214 22 17 21.09 -08 23 09.2 19.1   704 – Lincoln Laboratory ETS, New Mexico MPS 111170
2004 08 09.27164 22 17 20.54 -08 23 10.4 19.0   704 – Lincoln Laboratory ETS, New Mexico MPS 111170
2004 08 09.28098 22 17 20.01 -08 23 10.4 19.2   704 – Lincoln Laboratory ETS, New Mexico MPS 111170
2004 08 11.26517 22 15 31.60 -08 23 05.0 18.7   704 – Lincoln Laboratory ETS, New Mexico MPS 111170
2004 08 11.29109 22 15 30.07 -08 23 04.3 18.9   704 – Lincoln Laboratory ETS, New Mexico MPS 111170
2004 08 11.30425 22 15 29.31 -08 23 04.5 19.3   704 – Lincoln Laboratory ETS, New Mexico MPS 111170
2004 08 11.31419 22 15 28.73 -08 23 04.7 18.9   704 – Lincoln Laboratory ETS, New Mexico MPS 111170
2004 08 11.32419 22 15 28.16 -08 23 04.9 18.9   704 – Lincoln Laboratory ETS, New Mexico MPS 111171
2004 08 17.26943 22 09 43.94 -08 25 08.5 18.8   704 – Lincoln Laboratory ETS, New Mexico MPS 111887
2004 08 17.27959 22 09 43.41 -08 25 09.3 18.7   704 – Lincoln Laboratory ETS, New Mexico MPS 111887
2004 08 17.29045 22 09 42.69 -08 25 09.4 18.6   704 – Lincoln Laboratory ETS, New Mexico MPS 111887
2004 08 20.23670 22 06 46.36 -08 27 10.5 18.5 V 691 – Steward Observatory, Kitt Peak-Spacewatch MPS 111887
2004 08 20.30861 22 06 41.81 -08 27 14.0 18.5 V 691 – Steward Observatory, Kitt Peak-Spacewatch MPS 111887
2004 08 20.33324 22 06 40.24 -08 27 15.1 18.5 V 691 – Steward Observatory, Kitt Peak-Spacewatch MPS 111887
2004 08 27.29772 21 59 47.18 -08 33 30.3 18.0 R 703 – Catalina Sky Survey MPS 112212
2004 08 27.30905 21 59 46.59 -08 33 30.0 17.6 R 703 – Catalina Sky Survey MPS 112212
2004 08 27.32039 21 59 45.89 -08 33 31.2 17.6 R 703 – Catalina Sky Survey MPS 112212
2004 08 27.33174 21 59 45.21 -08 33 31.7 17.5 R 703 – Catalina Sky Survey MPS 112212
2004 09 07.18107 21 50 18.23 -08 43 22.3 19.0   704 – Lincoln Laboratory ETS, New Mexico MPS 112729
2004 09 07.19231 21 50 17.68 -08 43 22.7 19.5   704 – Lincoln Laboratory ETS, New Mexico MPS 112729
2004 09 07.20359 21 50 17.14 -08 43 23.4 19.7   704 – Lincoln Laboratory ETS, New Mexico MPS 112729
2004 09 07.21487 21 50 16.59 -08 43 23.6 19.2   704 – Lincoln Laboratory ETS, New Mexico MPS 112729
2004 09 07.22614 21 50 16.03 -08 43 24.7 18.9   704 – Lincoln Laboratory ETS, New Mexico MPS 112729
2004 09 10.18048 21 48 09.38 -08 45 22.1 18.7   704 – Lincoln Laboratory ETS, New Mexico MPS 112941
2004 09 10.19177 21 48 08.89 -08 45 22.6 19.1   704 – Lincoln Laboratory ETS, New Mexico MPS 112941
2004 09 10.20357 21 48 08.41 -08 45 22.9 19.2   704 – Lincoln Laboratory ETS, New Mexico MPS 112941
2004 09 10.21499 21 48 07.90 -08 45 23.9 19.2   704 – Lincoln Laboratory ETS, New Mexico MPS 112941
2004 09 10.22631 21 48 07.43 -08 45 23.9 19.3   704 – Lincoln Laboratory ETS, New Mexico MPS 112941
2004 09 13.17457 21 46 16.29 -08 46 50.6 18.9   704 – Lincoln Laboratory ETS, New Mexico MPS 112941
2004 09 13.18605 21 46 15.85 -08 46 51.0 19.1   704 – Lincoln Laboratory ETS, New Mexico MPS 112941
2004 09 13.22055 21 46 14.54 -08 46 54.0 19.0   704 – Lincoln Laboratory ETS, New Mexico MPS 112941
2004 09 17.12951 21 44 12.98 -08 47 48.1 19.4 V 691 – Steward Observatory, Kitt Peak-Spacewatch MPS 112941
2004 09 17.15606 21 44 12.19 -08 47 48.4 19.3 V 691 – Steward Observatory, Kitt Peak-Spacewatch MPS 112941
2004 09 17.18352 21 44 11.36 -08 47 48.4 19.3 V 691 – Steward Observatory, Kitt Peak-Spacewatch MPS 112941
2004 09 17.21071 21 44 10.46 -08 47 49.6 19.4   704 – Lincoln Laboratory ETS, New Mexico MPS 114372
2004 09 17.22245 21 44 10.16 -08 47 48.3 19.7   704 – Lincoln Laboratory ETS, New Mexico MPS 114372
2004 09 17.23419 21 44 09.78 -08 47 48.7 19.0   704 – Lincoln Laboratory ETS, New Mexico MPS 114372
2004 09 17.24595 21 44 09.43 -08 47 48.5 19.4   704 – Lincoln Laboratory ETS, New Mexico MPS 114372
2004 09 17.25768 21 44 09.05 -08 47 49.3 19.2   704 – Lincoln Laboratory ETS, New Mexico MPS 114372
2004 09 21.17138 21 42 39.31 -08 47 24.4 19.1   704 – Lincoln Laboratory ETS, New Mexico MPS 114372
2004 09 21.18355 21 42 39.02 -08 47 23.6 19.7   704 – Lincoln Laboratory ETS, New Mexico MPS 114372
2004 09 21.19573 21 42 38.76 -08 47 23.9 20.3   704 – Lincoln Laboratory ETS, New Mexico MPS 114372
2004 09 21.21372 21 42 38.35 -08 47 22.7 20.0   704 – Lincoln Laboratory ETS, New Mexico MPS 114372
2004 09 21.22618 21 42 38.04 -08 47 22.9 19.8   704 – Lincoln Laboratory ETS, New Mexico MPS 114372
2005 12 26.34698 07 33 35.87 +25 52 58.1   691 – Steward Observatory, Kitt Peak-Spacewatch MPS 156572
2005 12 26.36433 07 33 34.74 +25 52 59.7   691 – Steward Observatory, Kitt Peak-Spacewatch MPS 156572
2005 12 26.38168 07 33 33.61 +25 53 00.8   691 – Steward Observatory, Kitt Peak-Spacewatch MPS 156572
2005 12 29.34002 07 30 16.81 +25 56 36.6 20.5 V G96 – Mt. Lemmon Survey MPS 156572
2005 12 29.34603 07 30 16.41 +25 56 37.3 20.8 V G96 – Mt. Lemmon Survey MPS 156572
2005 12 29.35216 07 30 15.98 +25 56 37.3 20.4 V G96 – Mt. Lemmon Survey MPS 156572
2005 12 29.35948 07 30 15.48 +25 56 37.9 20.4 V G96 – Mt. Lemmon Survey MPS 156572
2007 05 10.20710 14 00 25.59 -23 08 09.6 18.8 R 699 – Lowell Observatory-LONEOS MPS 208899
2007 05 10.22905 14 00 24.36 -23 08 03.7   699 – Lowell Observatory-LONEOS MPS 208899
2007 05 10.25100 14 00 22.90 -23 07 54.6   699 – Lowell Observatory-LONEOS MPS 208899
2007 05 10.27295 14 00 21.53 -23 07 48.0   699 – Lowell Observatory-LONEOS MPS 208899
2007 05 13.57145 13 57 13.39 -22 48 17.4 20.2 V E12 – Siding Spring Survey MPS 208899
2007 05 13.58081 13 57 12.85 -22 48 16.2 18.8 V E12 – Siding Spring Survey MPS 208899
2007 05 13.59024 13 57 12.42 -22 48 10.1 18.9 V E12 – Siding Spring Survey MPS 208899
2007 05 13.59973 13 57 11.70 -22 48 07.4 19.6 V E12 – Siding Spring Survey MPS 208899
2007 05 21.21202 13 50 56.38 -22 02 03.6 18.9 R 699 – Lowell Observatory-LONEOS MPS 210132
2007 05 21.23396 13 50 55.32 -22 01 56.3   699 – Lowell Observatory-LONEOS MPS 210132
2007 05 21.25591 13 50 54.26 -22 01 49.1   699 – Lowell Observatory-LONEOS MPS 210132
2007 05 21.27784 13 50 53.28 -22 01 40.7   699 – Lowell Observatory-LONEOS MPS 210132
2008 10 25.31150 04 01 17.16 +29 31 11.1 20.1 V 691 – Steward Observatory, Kitt Peak-Spacewatch MPS 261476
2008 10 25.32920 04 01 16.21 +29 31 10.4 20.2 V 691 – Steward Observatory, Kitt Peak-Spacewatch MPS 261476
2008 10 25.34691 04 01 15.26 +29 31 10.1 20.2 V 691 – Steward Observatory, Kitt Peak-Spacewatch MPS 261476
